Home   Weather   Cologne   Past weeks

Flag for Germany Past Weather in Cologne, North Rhine-Westphalia, Germany — Yesterday and Last 2 Weeks

Now
68 °F

Sunny.


Feels Like: 68 °F
Forecast: 64 / 73 °F
Wind: 3 mph from South

Location: Koeln / Bonn

Current Time: Jul 26, 2017 at 8:57:03 pm

Latest Report: Jul 26, 2017 at 8:20 pm


Visibility: 10 mi

Pressure: 29.80 "Hg

Humidity: 69%

Dew Point: 57 °F

Location of CologneLocation

Past Weather in Cologne — Graph

°F

Cologne Temperature Yesterday

Maximum temperature yesterday: 64 °F (at 1:20 pm)
Minimum temperature yesterday: 57 °F (at 12:20 am)
Average temperature yesterday: 59 °F

High & Low Weather Summary for the Past Weeks

 TemperatureHumidityPressure
High90 °F (Jul 19, 2:20 pm)100% (Jul 12, 8:50 am)30.24 "Hg (Jul 12, 8:50 am)
Low45 °F (Jul 13, 4:50 am)38% (Jul 14, 1:50 pm)29.74 "Hg (Jul 12, 9:35 am)
Average65 °F76%29.96 "Hg
* Reported Jul 11 7:20 pm — Jul 26 7:50 pm, Cologne. Weather by CustomWeather, © 2017

Note: Actual official high and low records may vary slightly from our data, if they occured in-between our weather recording intervals... More about our weather records

Advertising

Cologne Weather History for the Previous 24 Hours

Scroll right to see more
 ConditionsComfort  
Time TempWeatherWind HumidityBarometerVisibility
7:50 pm
Wed, Jul 26
70 °FSunny.3 mph60%29.80 "Hg10 mi
7:20 pm72 °FPartly sunny.7 mph53%29.80 "HgN/A
6:50 pm72 °FPartly sunny.9 mph47%29.80 "HgN/A
6:20 pm73 °FPartly sunny.10 mph47%29.80 "HgN/A
5:50 pm73 °FBroken clouds.13 mph50%29.80 "HgN/A
5:20 pm72 °FBroken clouds.10 mph53%29.80 "HgN/A
4:50 pm72 °FBroken clouds.7 mph57%29.83 "HgN/A
4:20 pm72 °FPartly sunny.8 mph57%29.83 "HgN/A
3:50 pm72 °FPartly sunny.10 mph61%29.83 "HgN/A
3:20 pm70 °FPartly sunny.12 mph60%29.83 "HgN/A
2:50 pm68 °FPartly sunny.13 mph69%29.83 "HgN/A
2:20 pm66 °FPartly sunny.12 mph73%29.83 "HgN/A
1:50 pm66 °FSprinkles. Partly sunny.18 mph73%29.83 "HgN/A
1:20 pm66 °FPartly sunny.14 mph73%29.83 "HgN/A
12:50 pm70 °FScattered clouds.10 mph60%29.83 "HgN/A
12:20 pm68 °FScattered clouds.12 mph69%29.83 "HgN/A
11:50 am68 °FScattered clouds.13 mph69%29.83 "HgN/A
11:20 am64 °FScattered clouds.14 mph78%29.83 "HgN/A
10:50 am63 °FPartly sunny.14 mph77%29.83 "HgN/A
10:20 am63 °FPartly sunny.10 mph83%29.83 "HgN/A
9:50 am63 °FPartly sunny.14 mph83%29.83 "HgN/A
9:28 am63 °FScattered clouds.13 mph83%29.83 "HgN/A
8:50 am61 °FPartly sunny.12 mph88%29.80 "HgN/A
8:20 am59 °FPartly sunny.12 mph94%29.80 "HgN/A
7:50 am59 °FPartly sunny.13 mph94%29.80 "HgN/A
7:34 am59 °FPartly sunny.15 mph94%29.80 "HgN/A
7:20 am59 °FPartly sunny.16 mph94%29.80 "Hg6 mi
6:50 am59 °FDrizzle. Partly sunny.17 mph100%29.77 "Hg4 mi
6:20 am59 °FDrizzle. Fog.15 mph100%29.77 "Hg3 mi
5:50 am59 °FLight rain. Partly sunny.12 mph100%29.77 "Hg4 mi
5:20 am59 °FPassing clouds.9 mph100%29.77 "Hg4 mi
4:50 am59 °FPassing clouds.12 mph100%29.77 "Hg4 mi
4:20 am59 °FPassing clouds.10 mph100%29.80 "Hg6 mi
3:50 am59 °FPassing clouds.10 mph100%29.77 "Hg6 mi
3:20 am59 °FPassing clouds.12 mph100%29.80 "Hg6 mi
2:50 am59 °FPassing clouds.12 mph100%29.80 "Hg6 mi
2:20 am59 °FPassing clouds.9 mph100%29.80 "Hg6 mi
1:50 am59 °FPassing clouds.10 mph100%29.77 "Hg5 mi
1:20 am59 °FPassing clouds.10 mph94%29.77 "HgN/A
12:50 am59 °FPassing clouds.9 mph100%29.77 "Hg5 mi
12:20 am59 °FLight rain. Passing clouds.12 mph100%29.77 "Hg5 mi
11:50 pm
Tue, Jul 25
59 °FLight rain. Passing clouds.15 mph100%29.77 "Hg5 mi
11:20 pm59 °FPassing clouds.14 mph100%29.77 "Hg6 mi
10:50 pm59 °FPassing clouds.17 mph100%29.77 "Hg5 mi
10:20 pm59 °FPassing clouds.16 mph100%29.77 "Hg4 mi
9:50 pm59 °FLight rain. Mostly cloudy.17 mph100%29.74 "HgN/A
9:20 pm59 °FLight rain. Partly sunny.20 mph100%29.74 "Hg5 mi
8:50 pm59 °FLight rain. Partly sunny.22 mph94%29.74 "HgN/A
8:24 pm59 °FLight rain. Mostly cloudy.22 mph94%29.74 "Hg5 mi
8:02 pm59 °FLight rain. Mostly cloudy.18 mph94%29.74 "HgN/A
Weather by CustomWeather, © 2017

See weather overviewHow to use our weather pages